Regional Weather Roundup
Issued by NWS

Home | Current Version | Previous Version | Graphics & Text | Print | Product List | Glossary Off
Versions: 1 2 3 4 5 6 7 8 9 10 11 12 13 14 15 16 17 18 19 20 21 22 23 24 25 26 27 28 29 30 31 32 33 34 35 36 37 38 39 40 41 42 43 44 45 46 47 48 49 50

000
ASUS43 KMKX 220521
RWRWI

WISCONSIN REGIONAL WEATHER ROUNDUP
NATIONAL WEATHER SERVICE MILWAUKEE/SULLIVAN WI
1200 AM CDT TUE JUL 22 2014

NOTE: "FAIR" INDICATES FEW OR NO CLOUDS BELOW 12,000 FEET WITH NO
SIGNIFICANT WEATHER AND/OR OBSTRUCTIONS TO VISIBILITY.

WIZ001-002-006>008-014>016-023>028-220600-
NORTHWEST WISCONSIN

CITY           SKY/WX    TMP DP  RH WIND       PRES   REMARKS
SUPERIOR ARPT  CLOUDY    66  64  91 N5        29.78S
ASHLAND        PTCLDY    80  71  74 S13G20    29.83S HX  84
HAYWARD        MOCLDY    79  71  76 S15G22    29.86F HX  82
SIREN          CLOUDY    80  70  71 S12G21    29.82F HX  83
RICE LAKE      CLOUDY    79  68  69 SE13G24   29.89R HX  82
LADYSMITH      CLOUDY    78  68  72 S13G18    29.92R HX  80
EAU CLAIRE     PTCLDY    80  69  69 S15       29.88S HX  83
MENOMONIE      CLOUDY    80  69  70 SE7       29.87S HX  83
NEW RICHMOND   CLOUDY    80  71  74 S10G17    29.85S HX  83
OSCEOLA        CLOUDY    81  73  76 S13       29.85F HX  85
$$

WIZ003>005-009-010-017-018-220600-
NORTH CENTRAL WISCONSIN

CITY           SKY/WX    TMP DP  RH WIND       PRES   REMARKS
WOODRUFF       MOCLDY    77  71  81 S14       29.93F
RHINELANDER    CLOUDY    75  67  76 S12       29.97F
EAGLE RIVER    MOCLDY    73  66  79 S7        29.95F
LAND O LAKES   PTCLDY    74  68  82 S9        29.95F
PHILLIPS       CLOUDY    75  68  80 S13       29.92S
TOMAHAWK       PTCLDY    73  66  81 CALM      29.97S
MEDFORD        PTCLDY    71  67  88 S9        29.95F
MERRILL        PTCLDY    75  68  78 S5        29.96F
$$

WIZ029-030-035-036-043>047-220600-
CENTRAL WISCONSIN

CITY           SKY/WX    TMP DP  RH WIND       PRES   REMARKS
WAUSAU         PTCLDY    75  67  76 SE9       29.95F
MOSINEE        PTCLDY    72  68  88 S10       29.98F
MARSHFIELD     CLEAR     73  67  81 S9        29.96F
STEVENS POINT  CLEAR     73  66  78 S7        29.98F
WAUPACA        PTCLDY    74  69  82 CALM      29.99R
WAUTOMA        CLEAR     75  69  81 S6        29.99S
WISC RAPIDS    CLEAR     75  68  78 S7        29.98F
CAMP DOUGLAS   CLEAR     74  71  88 VRB6      29.96F
$$

WIZ011>013-019>022-031-037>040-048>050-220600-
NORTHEAST WISCONSIN

CITY           SKY/WX    TMP DP  RH WIND       PRES   REMARKS
ANTIGO         CLOUDY    72  68  85 S10       30.00F
STURGEON BAY   CLEAR     68  61  77 S7        30.01R
GREEN BAY      CLEAR     72  65  78 S6        30.00R
MANITOWOC      CLEAR     66  62  87 S3        30.01F
APPLETON       CLEAR     73  64  73 S8        30.01R
CLINTONVILLE   PTCLDY    72  66  83 S3        29.99R
OSHKOSH        CLEAR     74  68  81 S12       29.99S
$$

WIZ032>034-041-042-053>061-220600-
SOUTHWEST WISCONSIN

CITY           SKY/WX    TMP DP  RH WIND       PRES   REMARKS
LA CROSSE      CLEAR     81  69  67 S15       29.91F HX  84
SPARTA         CLEAR     77  66  67 S12G18    29.95S
VIROQUA        MOCLDY    75  68  78 S9G21     29.98S
BOSCOBEL       CLEAR     78  68  71 S6        29.97S HX  80
PRAIRIE DU CHI CLEAR     78  66  66 SE9G17    29.95F HX  80
PLATTEVILLE    FAIR      74  69  85 S8        30.02R
$$

WIZ056-057-062-063-064-067-068-220600-
SOUTH CENTRAL WISCONSIN

CITY           SKY/WX    TMP DP  RH WIND       PRES   REMARKS
BARABOO/DELLS  CLEAR     75  66  74 S9        29.99F
LONE ROCK      CLEAR     80  69  69 VRB3      29.99S HX  83
WATERTOWN      CLEAR     71  68  89 S5        30.02S
MADISON        PTCLDY    76  68  76 S10       30.01S
MIDDLETON      FAIR      77  68  74 S8        30.01S
MONROE         PTCLDY    73  68  83 S14       30.02S
JANESVILLE     CLEAR     75  64  69 S7        30.02S
$$

WIZ051-052-058>065-066-070>072-220600-
SOUTHEAST WISCONSIN

CITY           SKY/WX    TMP DP  RH WIND       PRES   REMARKS
MILWAUKEE      CLEAR     73  64  73 S7        30.03S
WAUKESHA       CLEAR     70  64  83 S7        30.04S
MILWAUKEE/TIMM CLEAR     72  63  73 S6        30.03S
RACINE         CLEAR     70  65  84 S3        30.06R
BURLINGTON     CLEAR     67  64  90 S3        30.04S
KENOSHA        CLEAR     72  65  78 S6        30.05S
FOND DU LAC    CLEAR     75  67  76 S14       30.00S
SHEBOYGAN      CLEAR     67  62  84 S5        30.01F
WEST BEND      CLEAR     70  63  78 S3        30.02F
JUNEAU         CLEAR     73  53  50 S10       30.03S
$$

LSZ147-162-220600-
LAKE SUPERIOR

STATION/POSITION TIME  TEMP    WIND        PRES    WAVE
                       AIR SEA DIR/SP/G            HT/PER
                 (UTC) (F)     (DEG/KT/KT) (MB)    (FT/S)
W MID LAKE BUOY  0450   54 40  150/ 12/ 14 1010.2F   0
PORT WING        0440   82     160/  5/  9 1008.8F
SAXON HARBOR     0400          180/  2/  7 1010.2F
$$

LMZ867-665-643>646-220600-
LAKE MICHIGAN

STATION/POSITION TIME  TEMP    WIND        PRES    WAVE
                       AIR SEA DIR/SP/G            HT/PER
                 (UTC) (F)     (DEG/KT/KT) (MB)    (FT/S)
N MID LAKE BUOY  0450   62 56  200/ 12/ 12 1015.4F   2/ 5
NORTHPORT PIER   0400   69     160/  6/ 12 1015.6F
KEWAUNEE LAKESHO 0500   58     170/ 11/ 12 1016.6F
SHEBOYGAN LAKESH 0500   69     180/ 17/ 17 1016.2F
PORT WASHINGTON  0440   61     190/  5/  9 1017.3F
ATWATER BUOY     0500   59     160/  8     1017.4F
MILWAUKEE LAKESH 0500          200/  8/ 10   N/A
S MID LAKE BUOY  0450   72 69  170/  8/ 10 1017.8S   1
KENOSHA   LAKESH 0500   70     190/  7/  8   N/A
$$

TC  - TEMPERATURE IN CELSIUS
VSB - VISIBILITY IN STATUTE MILES
WCI - WIND CHILL INDEX
HX  - HEAT INDEX



USA.gov is the U.S. government's official web portal to all federal, state and local government web resources and services.